一网星座-0501星 (ONEWEB-0501 )

导读 | 星芒AI

ONEWEB-0501 是 OneWeb 卫星通信公司发射的一组低轨通信卫星之一,旨在为全球提供高速互联网服务。该批次卫星采用标准化设计,具备高容量和低延迟特性,主要服务于偏远和网络覆盖不足的地区。ONEWEB-0501 卫星部署在约 1200 公里的近地轨道,运行于特定的轨道平面内,以确保全球覆盖和信号稳定性。该卫星项目是 OneWeb 打造全球宽带网络计划的重要组成部分,有助于推动数字包容和远程通信能力的提升。

基本信息
目录编号:
54119
目录名称:
ONEWEB-0501
国际标识:
2022-138G
轨道中心:
EARTH
卫星名称:
一网星座-0501星
卫星全名:
一网星座-0501星 (ONEWEB-0501 )
卫星状态:
在轨 (已飞行1104 天)
发射日期:
2022-10-22 UTC
国别 :
英国 (GB)
星等 :
--
轨道信息
数据来源 国际轨道数据
星历时间: 2025-10-30T04:02:04+0800
9小时前
查看轨道信息
半长轴: 7563.905km
偏心率: 0.0002047
轨道倾角: 87.926°
近地点辐角 109.769°
升交点赤经 350.789°
平近点角 250.366°
近地点: 1184.221km
远地点: 1187.319km
周期: 109.114分钟
每日圈数: 13.197258
详细信息
平衡模式:
三轴稳定
覆盖范围:
全球
运营商:
一网卫星公司
运营商所在国:
英国
制造商(研发单位):
一网卫星公司
制造商所在国:
英国
使用方式:
暂无
卫星简介
OneWeb卫星网络由648颗重约125公斤的微型卫星组成,运行在1200公里的轨道上。 每颗卫星都能够提供至少每秒8千兆位的吞吐量,以使用其高吞吐量的Ku频段有效载荷为家庭和移动平台提供互联网接入。该卫星仍在工作。
2D轨道图
3D轨道图
轨道高度分析图
轨道倾角分析图
轨道综合分析图
查看轨道综合分析图